Location: Antin
(43.3330°N, 0.2804°E)
Time: 04:33:21
(UTC+00:00)

Cosmos 1953 - Pass Details

Date: 16 October 2021
Orbit: 537 x 557 km, 82.5° (Epoch: 02 December)

Event Time Altitude Azimuth Distance (km) Brightness Sun altitude
Rises 18:09:14 0° 174° (S) 2,717 5.8 -10.8°
Reaches altitude 10° 18:11:26 10° 170° (S) 1,830 4.9 -11.2°
Maximum altitude 18:15:20 51° 94° (E) 706 2.5 -11.9°
Drops below altitude 10° 18:19:18 10° 18° (NNE) 1,852 4.8 -12.6°
Sets 18:21:31 0° 14° (NNE) 2,753 5.7 -13.0°
